Regional Weather Roundup
Issued by NWS Grand Forks, ND

Home | Current Version | Previous Version | Text Only | Print | Product List | Glossary Off
Versions: 1 2 3 4 5 6 7 8 9 10 11 12 13 14 15 16 17 18 19 20 21 22 23 24 25 26 27 28 29 30 31 32 33 34 35 36 37 38 39 40 41 42 43 44 45 46 47 48 49 50

000
ASUS43 KFGF 010931
RWRFGF
PRAIRIE TO PINES  WEATHER ROUNDUP
NATIONAL WEATHER SERVICE EASTERN NORTH DAKOTA/GRAND FORKS ND
400 AM CDT SAT AUG 01 2015

 **SATELLITE DATA USED TO AUGMENT SKY COVER AT AUTOMATED STATIONS**
 *****  WEATHER ACROSS EASTERN NORTH DAKOTA  *****

CITY           SKY/WX    TMP DP  RH WIND       PRES   REMARKS
GRAND FORKS    CLEAR     55  51  86 W7        29.95S
GRAND FRKS AFB CLEAR     56  52  85 W7        29.96S
GRAND FRKS NWS   N/A     55 N/A N/A W1          N/A
DEVILS LAKE    PTCLDY    63  55  77 SW7       30.00S
FARGO          CLEAR     57  54  89 CALM      29.98S
WAHPETON ARPT  SUNNY     55  52  88 W3        29.99F
$$

 ***** WEATHER ACROSS CENTRAL AND WESTERN NORTH DAKOTA  *****

CITY           SKY/WX    TMP DP  RH WIND       PRES   REMARKS
BISMARCK       MOCLDY    61  57  87 NE5       30.01F
MINOT          MOCLDY    54  50  86 CALM      29.99F
JAMESTOWN      PTCLDY    60  57  89 CALM      30.00F
MINOT AFB      PTCLDY    54  54  99 NW2       29.99F
GARRISON         N/A     58  55  90 CALM      30.00F
WILLISTON      CLEAR     62  53  72 NE5       29.98F
DICKINSON      CLEAR     55  49  80 E8        29.97F
HETTINGER      CLEAR     63  47  55 CALM      30.01F
$$

 *****  OTHER AIRPORT OBSERVATIONS IN OUR AREA  *****

CITY           SKY/WX    TMP DP  RH WIND       PRES   REMARKS
WALHALLA       FAIR      57  54  88 MISG      29.96S
GRAFTON AIRPOR FAIR      61  55  82 W7        29.96S
VALLEY CITY AR FAIR      57  57 100 CALM      30.01S
CANDO          FAIR      54  50  87 NW3       30.01F
CAVALIER APRT  FAIR      55  52  88 W7        29.95S
GWINNER          N/A     59  57  94 SW3       30.01F
ROLLA          FAIR      50  50 100 SW7       30.02S
 ***** THE ABOVE OBSERVATIONS ARE NON NWS ARE NOT QUALITY
       CONTROLLED AND MAY MIS-REPORT RAIN FOR SNOW...
$$

  *****  WEATHER ACROSS NORTHERN MINNESOTA  *****

CITY           SKY/WX    TMP DP  RH WIND       PRES   REMARKS
FLAG ISLAND    CLEAR     63  54  72 W12       29.89S
WARROAD        CLEAR     57  54  88 W7        29.93S
ROSEAU         CLEAR     52  46  82 SW3       29.93S
HALLOCK        CLEAR     48  46  93 S3        29.94S
THF RVR FALLS  CLEAR     55  52  88 CALM      29.96S
BAUDETTE       CLEAR     54  50  86 W6        29.91F
WASKISH        CLEAR     57  54  88 CALM      29.94S
CROOKSTON      CLEAR     55  52  88 SW5       29.97S
STEPHEN NDAWN    N/A     55  54  94 SW1         N/A
GREENBUSH NDAW   N/A     54  52  94 W3          N/A
$$
  *****  WEATHER ACROSS CENTRAL AND WEST MINNESOTA  *****

CITY           SKY/WX    TMP DP  RH WIND       PRES   REMARKS
FOSSTON        CLEAR     52  50  93 S7        29.98R
BEMIDJI        CLEAR     55  50  85 SW5       29.96F
PARK RAPIDS    CLEAR     55  50  83 W3        29.98F
ELBOW LAKE     FAIR      61  61  98 CALM      30.00R
WADENA         CLEAR     52  52 100 CALM      29.99S
DETROIT LAKES  CLEAR     59  55  88 CALM      30.00S
MOORHEAD       CLEAR     59  55  88 CALM      29.99S
FERGUS FALLS   CLEAR     63  59  88 CALM      29.99S
MORRIS MN      CLEAR     61  57  88 CALM      29.99R
STAPLES        CLEAR     54  54 100 CALM      29.98F
$$
  *****  WEATHER ELSEWHERE ACROSS MINNESOTA  *****

CITY           SKY/WX    TMP DP  RH WIND       PRES   REMARKS
DULUTH         CLEAR     57  49  74 W9        29.94S
INTRNTL FALLS  CLEAR     54  49  83 W5        29.90F
ELY            CLEAR     54  52  94 SW5       29.91S
CLOQUET        CLEAR     55  48  76 W6        29.95S
WHEATON        CLEAR     57  55  94 CALM      30.01S
BRAINERD       CLEAR     54  53  97 S5        29.98F
HIBBING        CLEAR     48  45  89 SW3       29.94S
ALEXANDRIA     CLEAR     61  60  97 CALM      30.01F
SAINT CLOUD    PTCLDY    59  58  96 CALM      29.98F
MINNEAPOLIS    PTCLDY    70  58  65 CALM      29.98F
$$

  *****  WEATHER ACROSS SOUTH DAKOTA  *****

CITY           SKY/WX    TMP DP  RH WIND       PRES   REMARKS
SIOUX FALLS    CLEAR     70  64  81 SW7       30.03F
BROOKINGS      CLEAR     63  59  88 CALM      30.03F
WATERTOWN      CLEAR     64  57  78 CALM      30.03R
HURON          CLEAR     65  62  90 CALM      29.99S
SISSETON         N/A     60  57  89 W6        30.00S
ABERDEEN       CLEAR     61  55  81 N6        30.01F
MITCHELL       CLEAR     69  66  90 SW8       30.00F
PIERRE         CLEAR     69  61  75 S10       29.98F
MOBRIDGE       PTCLDY    67  59  75 NE5       29.99F
RAPID CITY     PTCLDY    67  53  61 SW6       30.06F
$$

  *****  SOME WEATHER IN NEARBY STATES *****

CITY           SKY/WX    TMP DP  RH WIND       PRES   REMARKS
GLASGOW MT     CLEAR     61  50  67 E10       29.96F
GREAT FALLS MT CLEAR     54  36  50 SW5       30.04F
CHEYENNE WY    CLEAR     58  50  75 W6        30.25F
SCOTTSBLUFF NE CLEAR     65  55  70 E9        30.12F
OMAHA NE       CLEAR     71  67  87 SE6       30.04F
DES MOINES IA  PTCLDY    71  64  78 CALM      30.04S
DAVENPORT IA   CLEAR     60  57  89 NW5       30.04S
CHICAGO IL     CLEAR     66  53  63 W7        29.98S
EAU CLAIRE WI  CLOUDY    61  55  81 SW5       29.97S
LA CROSSE WI   MOCLDY    65  59  81 SE3       29.98F
$$

  *****  SOME NATIONAL WEATHER *****

CITY           SKY/WX    TMP DP  RH WIND       PRES   REMARKS
LA GUARDIA NY  PTCLDY    79  58  48 SW9G17    29.78S
RALEIGH NC     PTCLDY    67  64  90 CALM      29.93S
ATLANTA GA     PTCLDY    74  62  66 N5        29.94S
NEW ORLEANS LA PTCLDY    82  65  56 NE8       29.90F
OKLAHOMA CITY  MOCLDY    72  71  97 CALM      30.09S
ALBUQUERQUE NM MOCLDY    68  58  70 S5        30.31S
SALT LAKE CITY PTCLDY    68  39  34 SE5       30.12R
LOS ANGELES CA CLOUDY    67  65  93 W6        29.97S FOG
BOISE ID       CLEAR     74  37  26 SE6       29.99F
SEATTLE WA     CLEAR     70  39  32 N5        30.00F
$$

*** WEATHER ACROSS MANITOBA...SASKATCHEWAN AND ONTARIO ***
                ***ONTARIO***

CITY           SKY/WX    TMP DP  RH WIND       PRES   REMARKS
GERALDTON      MOCLDY    55  55 100 W6        29.74S
THUNDER BAY    PTCLDY    57  54  88 W8        29.82F
SIOUX LOOKOUT  PTCLDY    55  54  94 W5        29.83S
TORONTO        PTCLDY    64  57  77 W13       29.81R
BIG TROUT LK   CLOUDY    59  54  82 W10       29.59F
PICKLE LAKE    NOT AVBL
DRYDEN         CLEAR     55  54  94 W7        29.85S
KENORA         CLEAR     57  54  88 W5        29.88F
$$
                *** MANITOBA***

CITY           SKY/WX    TMP DP  RH WIND       PRES   REMARKS
BRANDON        CLEAR     48  48 100 W9        29.97F
DAUPHIN        CLEAR     57  52  82 W8        29.90F
ISLAND LAKE    PTCLDY    59  57  94 W13       29.70F
PILOT MOUND      N/A     50  48  93 W3          N/A
THE PAS        LGT RAIN  64  54  68 NW8       29.85R
THOMPSON       PTCLDY    50  50 100 NW6       29.73S
WINNIPEG       CLEAR     55  54  94 W9        29.92S
LYNN LAKE      CLEAR     50  48  93 NW7       29.81S
CHURCHILL      LGT RAIN  50  48  93 N16G23    29.50F
GILLAM         CLEAR     57  52  82 NW16G22   29.61F
$$
                ***SASKATCHEWAN***

CITY           SKY/WX    TMP DP  RH WIND       PRES   REMARKS
ESTEVAN        CLEAR     52  48  87 E3        30.00F
KINDERSLEY     MOCLDY    59  52  77 S7        29.93S
LLOYDMINSTER   MOCLDY    59  54  82 W8        29.95R
PRINCE ALBERT  PTCLDY    57  55  94 NE3       29.90F
REGINA         CLEAR     54  50  87 SE9       29.97F
YORKTON        CLEAR     57  52  82 SW9       29.93F
N. BATTLEFORD  CLOUDY    57  52  82 NW6       29.94R
LA RONGE       NOT AVBL
SASKATOON      PTCLDY    59  54  82 SW6       29.92F
SWIFT CURRENT  CLEAR     61  52  72 S14G23    29.94F
$$
NOTE: THESE ARE AUTOMATED STATIONS WITH LIMITED QUALITY CONTROL
      "FAIR" INDICATES FEW OR NO CLOUDS BELOW 12,000 FEET WITH NO
      SIGNIFICANT WEATHER AND/OR OBSTRUCTIONS TO VISIBILITY.
      SKY/WX - SKY CONDITION AND SIGNIFICANT WEATHER.
      TMP - AIR TEMPERATURE.    DP   - DEWPOINT TEMPERATURE.
      RH  - RELATIVE HUMIDITY.  PRES - PRESSURE.
      HX  - HEAT INDEX.         WCI  - WIND CHILL INDEX.
$


USA.gov is the U.S. government's official web portal to all federal, state and local government web resources and services.